Skip Page Navigation
NASA JPL Caltech
NASA Logo - Jet Propulsion Laboratory + View the NASA Portal
+ Center for Near-Earth Object Studies
JPL Home Earth Solar System Stars & Galaxies Technology
JPL Solar System Dynamics
BODIES ORBITS EPHEMERIDES TOOLS PHYSICAL DATA DISCOVERY FAQ SITE MAP
IMPORTANT: The SSD Announcement email list is now available. Major changes are coming in the near future, including possible hostname and/or URL changes. To be notified of such changes, subscribe to this email list.

Please visit this page for more details.


JPL Small-Body Database Browser
Search: [ help ]  
245953 (2006 SS36)
Classification: Main-belt Asteroid          SPK-ID: 2245953
Ephemeris | Orbit Diagram | Orbital Elements | Mission Design | Physical Parameters | Discovery Circumstances ]

[ show orbit diagram ]
Orbital Elements at Epoch 2459000.5 (2020-May-31.0) TDB
Reference: JPL 20 (heliocentric ecliptic J2000)
 Element Value Uncertainty (1-sigma)   Units 
e .310791330120507 7.1334e-08  
a 2.566316378936116 1.8602e-08 au
q 1.768727498016518 1.9082e-07 au
i 14.03395070270027 6.4224e-06 deg
node 342.3563626743598 1.4133e-05 deg
peri 2.729527868995324 1.7471e-05 deg
M 138.2505365841886 1.0762e-05 deg
tp 2458423.829088399606
(2018-Nov-01.32908840)
3.9775e-05 TDB
period 1501.632711926015
4.11
1.6327e-05
4.47e-08
d
yr
n .2397390501291484 2.6066e-09 deg/d
Q 3.363905259855714 2.4383e-08 au
  Orbit Determination Parameters
   # obs. used (total)      632  
   data-arc span      6331 days (17.33 yr)  
   first obs. used      2002-10-01  
   last obs. used      2020-01-31  
   planetary ephem.      DE431  
   SB-pert. ephem.      SB431-N16  
   condition code      0  
   norm. resid. RMS      .51078  
   source      ORB  
   producer      Otto Matic  
   solution date      2020-Feb-25 09:48:13  

Additional Information
 Earth MOID = .761442 au 
 Jupiter MOID = 2.05974 au 
 T_jup = 3.323 
[ show covariance matrix ]

Ephemeris | Orbit Diagram | Orbital Elements | Mission Design | Physical Parameters | Discovery Circumstances ]

Physical Parameter Table
Parameter Symbol Value Units Sigma Reference Notes
absolute magnitude H 15.7   n/a MPO460077  
diameter diameter 3.891 km 0.053 urn:nasa:pds:neowise_diameters_albedos::2.0[mainbelt] (http://adsabs.harvard.edu/abs/2011ApJ...741...68M)  
geometric albedo albedo 0.079   0.017 urn:nasa:pds:neowise_diameters_albedos::2.0[mainbelt] (http://adsabs.harvard.edu/abs/2011ApJ...741...68M)  

245953 (2006 SS36)          Discovered 2006-Sep-17 by CSS at Catalina
Reference: 20100726/Numbers.arcLast Updated: 2010-07-28
Ephemeris | Orbit Diagram | Orbital Elements | Mission Design | Physical Parameters | Discovery Circumstances ]
ABOUT SSD CREDITS/AWARDS PRIVACY/COPYRIGHT GLOSSARY LINKS
FirstGov 2020-Apr-03 02:53 UT
(server date/time)  
NASA Home Page
Site Manager:   Ryan S. Park
Webmaster  Alan B. Chamberlin